TimeMDT,TemperatureF,Dew PointF,Humidity,Sea Level PressureIn,VisibilityMPH,Wind Direction,Wind SpeedMPH,Gust SpeedMPH,PrecipitationIn,Events,Conditions,WindDirDegrees,DateUTC
12:53 AM,54.0,30.0,40,29.75,10.0,SW,11.5,-,N/A,,Clear,230,2014-04-12 06:53:00
1:53 AM,54.0,28.0,37,29.73,10.0,SW,13.8,-,N/A,,Clear,230,2014-04-12 07:53:00
2:53 AM,53.1,28.9,40,29.72,10.0,WSW,12.7,-,N/A,,Clear,240,2014-04-12 08:53:00
3:53 AM,50.0,30.0,46,29.73,10.0,SW,10.4,-,N/A,,Clear,220,2014-04-12 09:53:00
4:53 AM,50.0,28.9,44,29.72,10.0,SW,10.4,-,N/A,,Clear,220,2014-04-12 10:53:00
5:53 AM,46.9,30.9,54,29.72,10.0,WSW,8.1,-,N/A,,Clear,240,2014-04-12 11:53:00
6:53 AM,42.1,30.9,65,29.74,10.0,SW,8.1,-,N/A,,Clear,220,2014-04-12 12:53:00
7:53 AM,48.0,32.0,54,29.74,10.0,WSW,10.4,-,N/A,,Clear,250,2014-04-12 13:53:00
8:53 AM,50.0,30.9,48,29.76,10.0,West,16.1,21.9,N/A,,Clear,260,2014-04-12 14:53:00
9:53 AM,52.0,32.0,47,29.75,10.0,West,15.0,-,N/A,,Clear,260,2014-04-12 15:53:00
10:53 AM,55.0,34.0,45,29.75,10.0,WSW,13.8,20.7,N/A,,Clear,250,2014-04-12 16:53:00
11:53 AM,57.0,32.0,39,29.75,10.0,West,17.3,-,N/A,,Clear,260,2014-04-12 17:53:00
12:53 PM,57.9,30.0,35,29.73,10.0,West,18.4,23.0,N/A,,Clear,260,2014-04-12 18:53:00
1:53 PM,61.0,30.9,32,29.70,10.0,West,12.7,26.5,N/A,,Clear,260,2014-04-12 19:53:00
2:53 PM,62.1,24.1,23,29.68,10.0,West,17.3,27.6,N/A,,Clear,270,2014-04-12 20:53:00
3:53 PM,63.0,25.0,24,29.66,10.0,West,19.6,28.8,N/A,,Clear,260,2014-04-12 21:53:00
4:53 PM,62.1,26.1,25,29.65,10.0,West,18.4,32.2,N/A,,Clear,280,2014-04-12 22:53:00
5:53 PM,60.1,21.9,23,29.65,10.0,West,17.3,28.8,N/A,,Clear,270,2014-04-12 23:53:00
6:53 PM,57.0,17.1,21,29.67,10.0,West,19.6,28.8,N/A,,Clear,260,2014-04-13 00:53:00
7:53 PM,54.0,19.9,26,29.66,10.0,West,16.1,23.0,N/A,,Clear,260,2014-04-13 01:53:00
8:53 PM,48.9,19.9,32,29.68,10.0,WSW,17.3,-,N/A,,Clear,250,2014-04-13 02:53:00
9:53 PM,46.0,18.0,33,29.70,10.0,SW,15.0,-,N/A,,Clear,230,2014-04-13 03:53:00
10:53 PM,45.0,19.0,36,29.70,10.0,SW,15.0,-,N/A,,Clear,220,2014-04-13 04:53:00
11:53 PM,44.1,21.0,40,29.69,10.0,WSW,15.0,-,N/A,,Clear,250,2014-04-13 05:53:00